STARLINK-11597, 63115

Orbit data source: Space-Track

STARLINK-11597, 63115 is a payload satellite owned by SpaceX/Seattle (US) in LEO that was launched on Thu, 27 Feb 2025 UTC via an FALCON 9 launch vehicle from the Air Force Eastern Test Range (AFETR). Payload-class satellites include a variety of spacecraft equipped with specific instruments for various scientific and technological missions. These include communications satellites like Starlink; space stations such as the ISS; scientific satellites like the Hubble; Earth observation satellites from companies like Planet Labs, Umbra, and HawkEye 360; GPS; miniature CubeSats for education and research; and military/defense satellites.

Loading next visibility...
Identifier
63115, 2025-039M
Orbit
LEO
Country
Flag of USUS
Related business
Manufacturer
SpaceX/Seattle
Mission
Operational Commercial Communications
Bus & Motor
STARLINK V2MD, Unknown motor
Mass
960 kg wet, ~910 kg dry
Launch date (UTC)
2025-02-27 (1 year ago)
Launch vehicle
FALCON 9
Launch site
Air Force Eastern Test Range (AFETR)
Object type
Payload
Rocket body
Debris
Shape & HBR
Box + 2 Pan, 18.1 m
Radar Cross Section
36.964 m², Large (>1 m²)

Expand to show TLE details & history
Last TLE update: 5 hours ago

TLE from 5 hours ago
0 STARLINK-11597
1 63115U 25039M   26063.50601145  .00293313  00000-0  21735-2 0  9995
2 63115  42.9982 267.7784 0003698 226.4459 133.6102 15.71229440 58803
Epoch: 2026-03-04T12:08Z
TLE epoch observation values (Epoch: 2026-03-04T12:08:39.389Z)
Latitude
-0.00001°
Longitude
-76.65547°
Altitude
356.871 km
Speed
7.696 km/s
True Right ascension
17h 51m 06s
True Declination
0° 00' 00"
Sunlit
Object was in daylight at epoch
Visualization orbit readout
Latitude
Unknown
Longitude
Unknown
Altitude
Unknown
Speed
Unknown
Apparent Right ascension
Unknown
Apparent Declination
Unknown
Sunlit
N/A
Visualization observer readout
Local Sidereal Time
20:32:41
Azimuth
Unknown
Elevation
Unknown
Doppler factor
Unknown
Orbital elements
Apogee altitude
359.855 km
Perigee altitude
354.874 km
Semi-major axis
6,735.501 km
Eccentricity
0.00037
Inclination
42.9982°
RAAN
267.7784°
Arg. of periapsis
226.4459°
True anomaly
133.64087°
Mean anomaly
133.6102°
Eccentric anomaly
133.62554°
Mean motion
3.92634 °/min
Orbital period
91.69 mins
BSTAR
0.0021735
Loading maneuver chart data...
Computing Atmospheric mass density...
Loading historical data...
Loading historical data...
Loading historical data...
Loading historical data...
Loading historical data...
Loading historical data...
Loading historical data...

Documentation

Showing up to 5 results
|